Regional Weather Roundup
Issued by NWS

Home | Current Version | Previous Version | Text Only | Print | Product List | Glossary Off
Versions: 1 2 3 4 5 6 7 8 9 10 11 12 13 14 15 16 17 18 19 20 21 22 23 24 25 26 27 28 29 30 31 32 33 34 35 36 37 38 39 40 41 42 43 44 45 46 47 48 49 50

000
ASUS43 KLOT 291500
RWRIL

ILLINOIS REGIONAL WEATHER ROUNDUP
NATIONAL WEATHER SERVICE CHICAGO/ROMEOVILLE IL
1000 AM CDT WED JUL 29 2015

NOTE: "FAIR" INDICATES FEW OR NO CLOUDS BELOW 12,000 FEET WITH NO
SIGNIFICANT WEATHER AND/OR OBSTRUCTIONS TO VISIBILITY.

* THESE STATIONS ARE NOT UNDER NWS QUALITY CONTROL. THEY ALSO MAY NOT
  REPORT WEATHER SUCH AS PRECIPITATION OR FOG.

ILZ001-002-007-009-015-016-024-291600-
NORTHWEST ILLINOIS

CITY           SKY/WX    TMP DP  RH WIND       PRES   REMARKS
MOLINE         PTSUNNY   80  64  58 NW12      30.04R HX  82
STERLING*      MOSUNNY   82  66  57 NW14      30.02R HX  85
$$

ILZ003-004-008-010-011-017-018-291600-
NORTH CENTRAL ILLINOIS

CITY           SKY/WX    TMP DP  RH WIND       PRES   REMARKS
ROCKFORD       PTSUNNY   79  62  56 NW9       30.02R HX  80
$$

ILZ005-006-012>014-019>023-291600-
NORTHEAST ILLINOIS

CITY           SKY/WX    TMP DP  RH WIND       PRES   REMARKS
CHICAGO-OHARE  PTSUNNY   82  72  71 NW12      29.96R HX  87
CHICAGO-MIDWAY PTSUNNY   82  72  71 NW10      29.96R HX  87
AURORA         MOSUNNY   80  71  74 NW14      29.99R HX  84
LANSING*       CLOUDY    79  71  76 CALM      29.96S HX  82
WAUKEGAN       CLOUDY    77  68  73 VRB6      29.96R
DUPAGE AIRPORT CLOUDY    79  71  76 NW14      29.98R HX  82
WHEELING       CLOUDY    80  70  71 NW13G20   29.97R HX  83
NORTHERLY ISL    N/A     80  71  74 NW7         N/A  HX  84
$$

LMZ740>746-291600-
SOUTHERN LAKE MICHIGAN

STATION/POSITION SKY/WX   TEMP    WIND        PRES    VSBY  WAVE
                          AIR SEA DIR/SP/G                  HT/PER
                          (F)     (DEG/KT/KT) (MB)    (MI)  (FT/S)
HARRISON CRIB              76     320/  6/  7   N/A
BURNHAM HARBOR             78     310/  5/ 13   N/A
CALUMET HARBOR             78     280/  3/  5   N/A
BURNS HARBOR               75     250/  8/ 10 1014.9S
MICHIGAN CITY              75     230/ 14/ 15   N/A
MICHIGAN CITY 6N           75 74  260/ 10/ 12   N/A           1
ST. JOSEPH                 75 74  270/  6/  8   N/A           2/ 3
$$

ILZ025>027-034>036-040-047-049-050-058-095>099-291600-
WEST-CENTRAL ILLINOIS

CITY           SKY/WX    TMP DP  RH WIND       PRES   REMARKS
QUINCY         PTSUNNY   79  70  74 N10       30.06R HX  82
MACOMB*        SUNNY     79  67  67 N13       30.06R HX  81
$$

ILZ028>032-037-038-041>044-048-051>054-059>061-291600-
CENTRAL ILLINOIS

CITY           SKY/WX    TMP DP  RH WIND       PRES   REMARKS
DECATUR        CLOUDY    82  76  81 NW7       30.00R HX  89
PEORIA         MOSUNNY   83  71  67 VRB7      30.01S HX  87
SPRINGFIELD    CLOUDY    82  74  76 NW14      30.02R HX  88
TAYLORVILLE    NOT AVBL
$$

ILZ033-039-045-046-055>057-062-063-291600-
EAST-CENTRAL ILLINOIS

CITY           SKY/WX    TMP DP  RH WIND       PRES   REMARKS
CHAMPAIGN      PTSUNNY   80  74  81 CALM      30.00S HX  85
MATTOON        CLOUDY    81  75  82 S7        29.98S HX  87
$$

ILZ079-100>102-291600-
SOUTHWEST ILLINOIS

CITY           SKY/WX    TMP DP  RH WIND       PRES   REMARKS
ALTON          PTSUNNY   77  72  83 N7        30.01F
BELLEVILLE     MOSUNNY   86  79  79 VRB5      29.99S HX  99
CAHOKIA*       MOSUNNY   87  71  58 NW7       30.00F HX  93
SPARTA*        SUNNY     85  78  79 W3        30.02S HX  96
$$

ILZ064>066-069>071-074>076-080>082-084>086-088>090-092>094-291600-
SOUTH-CENTRAL ILLINOIS

CITY           SKY/WX    TMP DP  RH WIND       PRES   REMARKS
CARBONDALE     SUNNY     89  78  70 N6        30.00F HX 103
MARION         MOSUNNY   88  79  74 NW7       30.02S HX 102
MT. VERNON     SUNNY     88  75  66 W6        30.00F HX  97
SALEM*         MOSUNNY   86  78  76 NW6       30.00S HX  98
$$

ILZ067-068-072-073-078-083-087-091-291600-
SOUTHEAST ILLINOIS

CITY           SKY/WX    TMP DP  RH WIND       PRES   REMARKS
LAWRENCEVILLE  CLOUDY    82  73  74 CALM      29.99F HX  87
FLORA*         CLOUDY    83  77  81 CALM      29.99F HX  93
HARRISBURG*    MOSUNNY   86  81  86 W6        30.01F HX 102
ROBINSON*      PTSUNNY   83  77  82 S5        29.99F HX  92
CARMI*         MOSUNNY   79  72  79 MISG      30.00S HX  82
$$

ABBREVIATIONS USED IN REMARKS
   TC - TEMPERATURE IN CELSIUS
  WCI - WIND CHILL INDEX
   HX - HEAT INDEX
  VSB - VISIBILITY
$$



USA.gov is the U.S. government's official web portal to all federal, state and local government web resources and services.